Time,TemperatureF,DewpointF,PressureIn,WindDirection,WindDirectionDegrees,WindSpeedMPH,WindSpeedGustMPH,Humidity,HourlyPrecipIn,Conditions,Clouds,dailyrainin,SolarRadiationWatts/m^2,SoftwareType,DateUTC
2013-11-14 00:03:00,36.0,27.0,-100.00,SSW,212,3.0,11.0,69,0.00,,,0.00,0.000000,,2013-11-14 06:03:00,
2013-11-14 00:10:00,36.0,27.0,-100.00,SW,218,3.0,12.0,69,0.00,,,0.00,0.000000,,2013-11-14 06:10:00,
2013-11-14 00:42:00,36.0,27.0,-100.00,SW,218,3.0,12.0,69,0.00,,,0.00,0.000000,,2013-11-14 06:42:00,
2013-11-14 00:52:00,36.0,27.0,-100.00,SW,218,3.0,12.0,69,0.00,,,0.00,0.000000,,2013-11-14 06:52:00,
2013-11-14 01:02:00,36.0,27.0,-100.00,SW,218,3.0,12.0,69,0.00,,,0.00,0.000000,,2013-11-14 07:02:00,
2013-11-14 01:10:00,35.0,27.0,-100.00,SW,233,2.0,10.0,71,0.00,,,0.00,0.000000,,2013-11-14 07:10:00,
2013-11-14 01:42:00,35.0,27.0,-100.00,SW,233,2.0,10.0,71,0.00,,,0.00,0.000000,,2013-11-14 07:42:00,
2013-11-14 01:53:00,35.0,27.0,-100.00,SW,233,2.0,10.0,71,0.00,,,0.00,0.000000,,2013-11-14 07:53:00,
2013-11-14 02:01:00,35.0,27.0,-100.00,SW,233,2.0,10.0,71,0.00,,,0.00,0.000000,,2013-11-14 08:01:00,
2013-11-14 02:10:00,34.0,26.0,-100.00,SW,230,3.0,7.0,73,0.00,,,0.00,0.000000,,2013-11-14 08:10:00,
2013-11-14 02:42:00,34.0,26.0,-100.00,SW,230,3.0,7.0,73,0.00,,,0.00,0.000000,,2013-11-14 08:42:00,
2013-11-14 02:53:00,34.0,26.0,-100.00,SW,230,3.0,7.0,73,0.00,,,0.00,0.000000,,2013-11-14 08:53:00,
2013-11-14 03:02:00,34.0,26.0,-100.00,SW,230,3.0,7.0,73,0.00,,,0.00,0.000000,,2013-11-14 09:02:00,
2013-11-14 03:10:00,34.0,27.0,-100.00,SW,220,3.0,8.0,74,0.00,,,0.00,0.000000,,2013-11-14 09:10:00,
2013-11-14 03:43:00,34.0,27.0,-100.00,SW,220,3.0,8.0,74,0.00,,,0.00,0.000000,,2013-11-14 09:43:00,
2013-11-14 03:53:00,34.0,27.0,-100.00,SW,220,3.0,8.0,74,0.00,,,0.00,0.000000,,2013-11-14 09:53:00,
2013-11-14 04:03:00,34.0,27.0,-100.00,SW,220,3.0,8.0,74,0.00,,,0.00,0.000000,,2013-11-14 10:03:00,
2013-11-14 04:10:00,34.0,27.0,-100.00,SW,222,3.0,9.0,74,0.00,,,0.00,0.000000,,2013-11-14 10:10:00,
2013-11-14 04:43:00,34.0,27.0,-100.00,SW,222,3.0,9.0,74,0.00,,,0.00,0.000000,,2013-11-14 10:43:00,
2013-11-14 04:52:00,34.0,27.0,-100.00,SW,222,3.0,9.0,74,0.00,,,0.00,0.000000,,2013-11-14 10:52:00,
2013-11-14 05:02:00,34.0,27.0,-100.00,SW,222,3.0,9.0,74,0.00,,,0.00,0.000000,,2013-11-14 11:02:00,
2013-11-14 05:10:00,34.0,27.0,-100.00,SW,214,3.0,7.0,75,0.00,,,0.00,0.000000,,2013-11-14 11:10:00,
2013-11-14 05:42:00,34.0,27.0,-100.00,SW,214,3.0,7.0,75,0.00,,,0.00,0.000000,,2013-11-14 11:42:00,
2013-11-14 05:52:00,34.0,27.0,-100.00,SW,214,3.0,7.0,75,0.00,,,0.00,0.000000,,2013-11-14 11:52:00,
2013-11-14 06:02:00,34.0,27.0,-100.00,SW,214,3.0,7.0,75,0.00,,,0.00,0.000000,,2013-11-14 12:02:00,
2013-11-14 06:10:00,33.0,26.0,-100.00,WSW,238,1.0,8.0,76,0.00,,,0.00,0.000000,,2013-11-14 12:10:00,
2013-11-14 06:42:00,33.0,26.0,-100.00,WSW,238,1.0,8.0,76,0.00,,,0.00,0.000000,,2013-11-14 12:42:00,
2013-11-14 06:52:00,33.0,26.0,-100.00,WSW,238,1.0,8.0,76,0.00,,,0.00,0.000000,,2013-11-14 12:52:00,
2013-11-14 07:02:00,33.0,26.0,-100.00,WSW,238,1.0,8.0,76,0.00,,,0.00,0.000000,,2013-11-14 13:02:00,
2013-11-14 07:10:00,33.0,27.0,-100.00,SSW,194,1.0,5.0,78,0.00,,,0.00,1.000000,,2013-11-14 13:10:00,
2013-11-14 07:42:00,33.0,27.0,-100.00,SSW,194,1.0,5.0,78,0.00,,,0.00,1.000000,,2013-11-14 13:42:00,
2013-11-14 07:52:00,33.0,27.0,-100.00,SSW,194,1.0,5.0,78,0.00,,,0.00,1.000000,,2013-11-14 13:52:00,
2013-11-14 08:02:00,33.0,27.0,-100.00,SSW,194,1.0,5.0,78,0.00,,,0.00,1.000000,,2013-11-14 14:02:00,
2013-11-14 08:10:00,34.0,28.0,-100.00,SW,231,1.0,6.0,78,0.00,,,0.00,14.000000,,2013-11-14 14:10:00,
2013-11-14 08:42:00,34.0,28.0,-100.00,SW,231,1.0,6.0,78,0.00,,,0.00,14.000000,,2013-11-14 14:42:00,
2013-11-14 08:52:00,34.0,28.0,-100.00,SW,231,1.0,6.0,78,0.00,,,0.00,14.000000,,2013-11-14 14:52:00,
2013-11-14 09:02:00,34.0,28.0,-100.00,SW,231,1.0,6.0,78,0.00,,,0.00,14.000000,,2013-11-14 15:02:00,
2013-11-14 09:10:00,35.0,28.0,-100.00,SW,217,3.0,9.0,74,0.00,,,0.00,67.000000,,2013-11-14 15:10:00,
2013-11-14 09:43:00,35.0,28.0,-100.00,SW,217,3.0,9.0,74,0.00,,,0.00,67.000000,,2013-11-14 15:43:00,
2013-11-14 09:53:00,35.0,28.0,-100.00,SW,217,3.0,9.0,74,0.00,,,0.00,67.000000,,2013-11-14 15:53:00,
2013-11-14 10:03:00,35.0,28.0,-100.00,SW,217,3.0,9.0,74,0.00,,,0.00,67.000000,,2013-11-14 16:03:00,
2013-11-14 10:10:00,37.0,29.0,-100.00,WSW,239,3.0,9.0,72,0.00,,,0.00,103.000000,,2013-11-14 16:10:00,
2013-11-14 10:42:00,37.0,29.0,-100.00,WSW,239,3.0,9.0,72,0.00,,,0.00,103.000000,,2013-11-14 16:42:00,
2013-11-14 10:52:00,37.0,29.0,-100.00,WSW,239,3.0,9.0,72,0.00,,,0.00,103.000000,,2013-11-14 16:52:00,
2013-11-14 11:02:00,37.0,29.0,-100.00,WSW,239,3.0,9.0,72,0.00,,,0.00,103.000000,,2013-11-14 17:02:00,
2013-11-14 11:10:00,38.0,29.0,-100.00,WSW,241,4.0,8.0,70,0.00,,,0.00,114.000000,,2013-11-14 17:10:00,
2013-11-14 11:42:00,38.0,29.0,-100.00,WSW,241,4.0,8.0,70,0.00,,,0.00,114.000000,,2013-11-14 17:42:00,
2013-11-14 11:52:00,38.0,29.0,-100.00,WSW,241,4.0,8.0,70,0.00,,,0.00,114.000000,,2013-11-14 17:52:00,
2013-11-14 12:02:00,38.0,29.0,-100.00,WSW,241,4.0,8.0,70,0.00,,,0.00,114.000000,,2013-11-14 18:02:00,
2013-11-14 12:10:00,38.0,28.0,-100.00,SSW,211,3.0,9.0,68,0.00,,,-99.99,111.000000,,2013-11-14 18:10:00,
2013-11-14 12:42:00,38.0,28.0,-100.00,SSW,211,3.0,9.0,68,0.00,,,-99.99,111.000000,,2013-11-14 18:42:00,
2013-11-14 12:52:00,38.0,28.0,-100.00,SSW,211,3.0,9.0,68,0.00,,,-99.99,111.000000,,2013-11-14 18:52:00,
2013-11-14 13:01:00,38.0,28.0,-100.00,SSW,211,3.0,9.0,68,0.00,,,-99.99,111.000000,,2013-11-14 19:01:00,
2013-11-14 13:10:00,39.0,29.0,-100.00,SSW,202,2.0,9.0,67,0.00,,,0.00,95.000000,,2013-11-14 19:10:00,
2013-11-14 13:42:00,39.0,29.0,-100.00,SSW,202,2.0,9.0,67,0.00,,,0.00,95.000000,,2013-11-14 19:42:00,
2013-11-14 13:52:00,39.0,29.0,-100.00,SSW,202,2.0,9.0,67,0.00,,,0.00,95.000000,,2013-11-14 19:52:00,
2013-11-14 14:02:00,39.0,29.0,-100.00,SSW,202,2.0,9.0,67,0.00,,,0.00,95.000000,,2013-11-14 20:02:00,
2013-11-14 14:10:00,39.0,29.0,-100.00,WSW,246,2.0,8.0,68,0.00,,,0.00,63.000000,,2013-11-14 20:10:00,
2013-11-14 14:42:00,39.0,29.0,-100.00,WSW,246,2.0,8.0,68,0.00,,,0.00,63.000000,,2013-11-14 20:42:00,
2013-11-14 14:52:00,39.0,29.0,-100.00,WSW,246,2.0,8.0,68,0.00,,,0.00,63.000000,,2013-11-14 20:52:00,
2013-11-14 15:02:00,39.0,29.0,-100.00,WSW,246,2.0,8.0,68,0.00,,,0.00,63.000000,,2013-11-14 21:02:00,
2013-11-14 15:10:00,40.0,30.0,-100.00,SSW,198,3.0,9.0,66,0.00,,,0.00,60.000000,,2013-11-14 21:10:00,
2013-11-14 15:43:00,40.0,30.0,-100.00,SSW,198,3.0,9.0,66,0.00,,,0.00,60.000000,,2013-11-14 21:43:00,
2013-11-14 15:53:00,40.0,30.0,-100.00,SSW,198,3.0,9.0,66,0.00,,,0.00,60.000000,,2013-11-14 21:53:00,
2013-11-14 16:03:00,40.0,30.0,-100.00,SSW,198,3.0,9.0,66,0.00,,,0.00,60.000000,,2013-11-14 22:03:00,
2013-11-14 16:10:00,37.0,29.0,-100.00,SSW,198,2.0,6.0,72,0.00,,,0.00,36.000000,,2013-11-14 22:10:00,
2013-11-14 16:43:00,37.0,29.0,-100.00,SSW,198,2.0,6.0,72,0.00,,,0.00,36.000000,,2013-11-14 22:43:00,
2013-11-14 16:53:00,37.0,29.0,-100.00,SSW,198,2.0,6.0,72,0.00,,,0.00,36.000000,,2013-11-14 22:53:00,
2013-11-14 17:02:00,37.0,29.0,-100.00,SSW,198,2.0,6.0,72,0.00,,,0.00,36.000000,,2013-11-14 23:02:00,
2013-11-14 17:10:00,34.0,28.0,-100.00,SSW,199,1.0,4.0,80,0.00,,,0.00,4.000000,,2013-11-14 23:10:00,
2013-11-14 17:43:00,34.0,28.0,-100.00,SSW,199,1.0,4.0,80,0.00,,,0.00,4.000000,,2013-11-14 23:43:00,
2013-11-14 17:52:00,34.0,28.0,-100.00,SSW,199,1.0,4.0,80,0.00,,,0.00,4.000000,,2013-11-14 23:52:00,
2013-11-14 18:02:00,34.0,28.0,-100.00,SSW,199,1.0,4.0,80,0.00,,,0.00,4.000000,,2013-11-15 00:02:00,
2013-11-14 18:10:00,34.0,28.0,-100.00,SSW,198,1.0,7.0,77,0.00,,,0.00,0.000000,,2013-11-15 00:10:00,
2013-11-14 18:42:00,34.0,28.0,-100.00,SSW,198,1.0,7.0,77,0.00,,,0.00,0.000000,,2013-11-15 00:42:00,
2013-11-14 18:52:00,34.0,28.0,-100.00,SSW,198,1.0,7.0,77,0.00,,,0.00,0.000000,,2013-11-15 00:52:00,
2013-11-14 19:01:00,34.0,28.0,-100.00,SSW,198,1.0,7.0,77,0.00,,,0.00,0.000000,,2013-11-15 01:01:00,
2013-11-14 19:10:00,33.0,28.0,-100.00,SSW,200,2.0,9.0,81,0.00,,,0.00,0.000000,,2013-11-15 01:10:00,
2013-11-14 19:42:00,33.0,28.0,-100.00,SSW,200,2.0,9.0,81,0.00,,,0.00,0.000000,,2013-11-15 01:42:00,
2013-11-14 19:52:00,33.0,28.0,-100.00,SSW,200,2.0,9.0,81,0.00,,,0.00,0.000000,,2013-11-15 01:52:00,
2013-11-14 20:02:00,33.0,28.0,-100.00,SSW,200,2.0,9.0,81,0.00,,,0.00,0.000000,,2013-11-15 02:02:00,
2013-11-14 20:10:00,33.0,29.0,-100.00,WSW,253,1.0,8.0,84,0.00,,,0.00,0.000000,,2013-11-15 02:10:00,
2013-11-14 20:42:00,33.0,29.0,-100.00,WSW,253,1.0,8.0,84,0.00,,,0.00,0.000000,,2013-11-15 02:42:00,
2013-11-14 20:52:00,33.0,29.0,-100.00,WSW,253,1.0,8.0,84,0.00,,,0.00,0.000000,,2013-11-15 02:52:00,
2013-11-14 21:02:00,33.0,29.0,-100.00,WSW,253,1.0,8.0,84,0.00,,,0.00,0.000000,,2013-11-15 03:02:00,
2013-11-14 21:10:00,32.0,28.0,-100.00,South,186,1.0,5.0,86,0.00,,,0.00,0.000000,,2013-11-15 03:10:00,
2013-11-14 21:44:00,32.0,28.0,-100.00,South,186,1.0,5.0,86,0.00,,,0.00,0.000000,,2013-11-15 03:44:00,
2013-11-14 21:54:00,32.0,28.0,-100.00,South,186,1.0,5.0,86,0.00,,,0.00,0.000000,,2013-11-15 03:54:00,
2013-11-14 22:04:00,32.0,28.0,-100.00,South,186,1.0,5.0,86,0.00,,,0.00,0.000000,,2013-11-15 04:04:00,
2013-11-14 22:10:00,29.0,27.0,-100.00,NW,323,0.0,4.0,94,0.00,,,0.00,0.000000,,2013-11-15 04:10:00,
2013-11-14 22:43:00,29.0,27.0,-100.00,NW,323,0.0,4.0,94,0.00,,,0.00,0.000000,,2013-11-15 04:43:00,
2013-11-14 22:53:00,29.0,27.0,-100.00,NW,323,0.0,4.0,94,0.00,,,0.00,0.000000,,2013-11-15 04:53:00,
2013-11-14 23:03:00,29.0,27.0,-100.00,NW,323,0.0,4.0,94,0.00,,,0.00,0.000000,,2013-11-15 05:03:00,
2013-11-14 23:10:00,32.0,30.0,-100.00,South,174,1.0,3.0,92,0.00,,,-99.99,0.000000,,2013-11-15 05:10:00,
2013-11-14 23:44:00,32.0,30.0,-100.00,South,174,1.0,3.0,92,0.00,,,-99.99,0.000000,,2013-11-15 05:44:00,
2013-11-14 23:53:00,32.0,30.0,-100.00,South,174,1.0,3.0,92,0.00,,,-99.99,0.000000,,2013-11-15 05:53:00,